Regional Weather Roundup
Issued by NWS

Home | Current Version | Previous Version | Text Only | Print | Product List | Glossary Off
Versions: 1 2 3 4 5 6 7 8 9 10 11 12 13 14 15 16 17 18 19 20 21 22 23 24 25 26 27 28 29 30 31 32 33 34 35 36 37 38 39 40 41 42 43 44 45 46 47 48 49 50

000
ASUS43 KOAX 021902
RWRNE

WEATHER ROUNDUP FOR NEBRASKA
NATIONAL WEATHER SERVICE OMAHA NE
200 PM CDT WED SEP 02 2015

NOTES: SATELLITE DATA IS BEING USED TO AUGMENT CLOUD COVER ABOVE
       12000 FEET.
       "FAIR" INDICATES FEW OR NO CLOUDS BELOW 12,000 FEET WITH NO
       SIGNIFICANT WEATHER AND/OR OBSTRUCTIONS TO VISIBILITY.

  * THESE STATIONS DO NOT REPORT WEATHER SUCH AS RAIN...SNOW OR FOG.

NEZ001>004-019>022-054>056-022000-
NEBRASKA PANHANDLE

CITY           SKY/WX    TMP DP  RH WIND       PRES   REMARKS
SCOTTSBLUFF    SUNNY     90  47  22 NW7       29.95F
ALLIANCE       MOSUNNY   91  43  18 SE7       29.94F
CHADRON        MOSUNNY   96  44  16 SW12      29.87F HX  92
KIMBALL        SUNNY     88  40  18 W7        30.02F
SIDNEY         SUNNY     92  42  17 SW9       29.99F
$$

NEZ057>060-069>072-079>082-022000-
SOUTHWEST NEBRASKA

CITY           SKY/WX    TMP DP  RH WIND       PRES   REMARKS
NORTH PLATTE   SUNNY     94  64  37 SE3       29.87F HX  95
IMPERIAL       MOSUNNY   94  53  25 VRB3      29.92F HX  91
LEXINGTON      SUNNY     93  62  36 S12       29.88F HX  94
MC COOK        SUNNY     98  55  23 E12       29.87F HX  96
OGALLALA       SUNNY     91  52  26 SW5       29.93F
$$

NEZ005>010-023>029-035>040-094-022000-
NORTH CENTRAL NEBRASKA

CITY           SKY/WX    TMP DP  RH WIND       PRES   REMARKS
VALENTINE      SUNNY     97  47  18 S9        29.83F HX  93
AINSWORTH      MOSUNNY   97  53  22 S13       29.85S HX  94
BROKEN BOW     SUNNY     97  56  25 S14G20    29.86F HX  95
O`NEILL        SUNNY     95  65  37 S12G18    29.83F HX  98
ORD            SUNNY     96  60  30 SE12      29.84F HX  96
THEDFORD       SUNNY     93  55  27 S7        29.89F HX  91
$$

NEZ041-046>049-061>064-073>077-083>087-022000-
SOUTH CENTRAL NEBRASKA

CITY           SKY/WX    TMP DP  RH WIND       PRES   REMARKS
GRAND ISLAND   SUNNY     92  64  39 S16       29.88F HX  93
AURORA         SUNNY     89  65  44 S12       29.88F HX  91
HASTINGS       SUNNY     92  64  39 S9        29.88F HX  93
HEBRON         SUNNY     91  60  35 S14G21    29.89F HX  90
HOLDREGE       SUNNY     91  59  34 S12       29.89F HX  90
KEARNEY *      SUNNY     91  66  43 S12       29.88F HX  94
YORK           SUNNY     88  68  51 S13       29.89F HX  91
$$

NEZ011>018-030>034-042>045-022000-
NORTHEAST NEBRASKA

CITY           SKY/WX    TMP DP  RH WIND       PRES   REMARKS
NORFOLK        SUNNY     87  71  58 S13       29.86S HX  93
ALBION         SUNNY     87  69  54 SE10      29.87S HX  91
BLAIR          FAIR      83  70  64 S15       29.89F
COLUMBUS *     SUNNY     88  68  51 SE9       29.87F HX  91
FREMONT        SUNNY     86  67  53 S15       29.88F
TEKAMAH        SUNNY     86  73  65 S13       29.87F HX  93
$$

NEZ050>053-065>068-078-088>093-022000-
SOUTHEAST NEBRASKA

CITY           SKY/WX    TMP DP  RH WIND       PRES   REMARKS
LINCOLN        SUNNY     90  70  51 S17       29.88F HX  95
OMAHA EPPLEY   MOSUNNY   86  70  58 S17G26    29.88F HX  90
BEATRICE       SUNNY     88  69  54 S14G24    29.89F HX  92
FALLS CITY     SUNNY     87  69  54 S18G28    29.93F HX  91
NEBRASKA CITY  SUNNY     87  67  51 S15G21    29.92F
PLATTSMOUTH    SUNNY     84  69  60 S16G24    29.90F
$$

NEZ044-045-051>053-067-022000-
OMAHA AREA

CITY           SKY/WX    TMP DP  RH WIND       PRES   REMARKS
EPPLEY FIELD   MOSUNNY   86  70  58 S17G26    29.88F HX  90
BLAIR          SUNNY     83  70  64 S15       29.89F
FREMONT        SUNNY     86  67  53 S15       29.88F
MILLARD        SUNNY     85  71  62 S12G22    29.89F HX  90
OFFUTT AFB     SUNNY     86  71  61 S16G24    29.89F HX  91
PLATTSMOUTH    SUNNY     84  69  60 S16G24    29.90F
WAHOO          FAIR      87  69  55 S14       29.88F HX  91
$$


USA.gov is the U.S. government's official web portal to all federal, state and local government web resources and services.